Flag for Canada Weather past 2 weeks in Cumberland County, Nova Scotia, Canada

Now
30 °F

Chilly.


Feels Like: 30 °F
Forecast: 23 / 29 °F
Wind: 2 mph from Southeast

Location: Kentville

Current Time: Dec 22, 2014 at 3:34:42 PM

Latest Report: Dec 22, 2014 at 2:00 PM


Visibility: N/A

Pressure: 30.43 "Hg

Humidity: 80%

Dew point: 25 °F

Location of Cumberland CountyLocation

Historic Weather in Cumberland County — Graph

°F

Cumberland County temperature yesterday

Maximum temperature yesterday: 32 °F (at 2:00 PM)
Minimum temperature yesterday: 30 °F (at 5:00 AM)
Average temperature yesterday: 31 °F

Past Weeks' High & Low Weather Summary

 TemperatureHumidityPressure
High54 °F (Dec 11, 2:00 PM)100% (Dec 10, 9:00 PM)30.81 "Hg (Dec 10, 9:00 PM)
Low11 °F (Dec 8, 2:00 AM)61% (Dec 7, 5:00 PM)29.33 "Hg (Dec 18, 7:00 AM)
Average34 °F88%29.99 "Hg
* Reported Dec 7 2:00 PM — Dec 22 2:00 PM, Cumberland County, Weather by CustomWeather, © 2014

Note: Actual official high and low records may vary slightly from our data, if they occured in-between our weather recording intervals... More about our weather records

Advertising

Cumberland County weather history for previous 24 hours

 ConditionsComfort  
Time TempWeatherWind HumidityBarometerVisibility
2:00 PM
Dec 22
30 °FChilly.2 mph80%30.43 "HgN/A
1:00 PM30 °FChilly.2 mph79%30.44 "HgN/A
12:00 PM30 °FChilly.2 mph78%30.45 "HgN/A
10:00 AM29 °FChilly.1 mph81%30.47 "HgN/A
9:00 AM29 °FChilly.1 mph85%30.45 "HgN/A
8:00 AM29 °FChilly.3 mph86%30.43 "HgN/A
7:00 AM29 °FChilly.3 mph85%30.42 "HgN/A
6:00 AM29 °FChilly.3 mph85%30.41 "HgN/A
5:00 AM31 °FChilly.2 mph80%30.40 "HgN/A
4:00 AM30 °FChilly.2 mph84%30.40 "HgN/A
3:00 AM30 °FChilly.1 mph83%30.40 "HgN/A
2:00 AM30 °FChilly.3 mph82%30.38 "HgN/A
1:00 AM30 °FChilly.2 mph82%30.38 "HgN/A
12:00 AM30 °FChilly.3 mph81%30.38 "HgN/A
11:00 PM
Dec 21
30 °FChilly.2 mph78%30.37 "HgN/A
10:00 PM30 °FChilly.3 mph83%30.37 "HgN/A
9:00 PM31 °FChilly.1 mph76%30.37 "HgN/A
8:00 PM31 °FChilly.2 mph75%30.37 "HgN/A
7:00 PM31 °FChilly.1 mph79%30.37 "HgN/A
6:00 PM31 °FChilly.1 mph80%30.37 "HgN/A
5:00 PM31 °FChilly.1 mph79%30.36 "HgN/A
4:00 PM31 °FChilly.No wind75%30.35 "HgN/A
3:00 PM32 °FChilly.1 mph75%30.35 "HgN/A
Weather by CustomWeather, © 2014

See weather overviewHow to use our weather pages